| time (UTC) | temp C | wind direction | speed KPH | gust KPH | rain 1hr cm | rain 24hr cm | rain mn cm | humidity % | barometer mb |
| 20260502164027 | 20 | 360 | 12.9 | 27.4 | 0.00 | 0.00 | 0.00 | 29 | 1015.8 |
| 20260502163527 | 20 | 360 | 14.5 | 27.4 | 0.00 | 0.00 | 0.00 | 28 | 1015.8 |
| 20260502163042 | 20 | 360 | 14.5 | 25.7 | 0.00 | 0.00 | 0.00 | 27 | 1015.8 |
| 20260502162532 | 20 | 360 | 9.7 | 20.9 | 0.00 | 0.00 | 0.00 | 28 | 1015.8 |
| 20260502162029 | 20 | 360 | 11.3 | 24.1 | 0.00 | 0.00 | 0.00 | 28 | 1015.9 |
| 20260502161544 | 20 | 360 | 12.9 | 25.7 | 0.00 | 0.00 | 0.00 | 28 | 1015.7 |
| 20260502161029 | 20 | 360 | 14.5 | 25.7 | 0.00 | 0.00 | 0.00 | 28 | 1015.8 |
| 20260502160530 | 20 | 360 | 8.0 | 20.9 | 0.00 | 0.00 | 0.00 | 28 | 1015.7 |
| 20260502152028 | 18 | 360 | 6.4 | 12.9 | 0.00 | 0.00 | 0.00 | 35 | 1015.9 |
| 20260502151544 | 18 | 360 | 4.8 | 12.9 | 0.00 | 0.00 | 0.00 | 36 | 1016.0 |
| 20260502151027 | 17 | 360 | 3.2 | 8.0 | 0.00 | 0.00 | 0.00 | 37 | 1016.0 |
| 20260502150527 | 17 | 360 | 3.2 | 6.4 | 0.00 | 0.00 | 0.00 | 35 | 1016.0 |
| 20260502130532 | 3 | 360 | 4.8 | 8.0 | 0.00 | 0.00 | 0.00 | 61 | 1016.3 |
| 20260502123527 | 1 | 360 | 1.6 | 6.4 | 0.00 | 0.00 | 0.00 | 66 | 1016.1 |
| 20260502123043 | 2 | 360 | 3.2 | 6.4 | 0.00 | 0.00 | 0.00 | 65 | 1016.2 |
| 20260502122527 | 2 | 360 | 1.6 | 6.4 | 0.00 | 0.00 | 0.00 | 63 | 1016.2 |
| 20260502122028 | 2 | 360 | 3.2 | 6.4 | 0.00 | 0.00 | 0.00 | 61 | 1016.2 |
| 20260502121538 | 2 | 360 | 3.2 | 6.4 | 0.00 | 0.00 | 0.00 | 60 | 1016.0 |
| 20260502121028 | 2 | 360 | 3.2 | 6.4 | 0.00 | 0.00 | 0.00 | 61 | 1016.2 |
| 20260502120529 | 2 | 360 | 3.2 | 6.4 | 0.00 | 0.00 | 0.00 | 62 | 1016.3 |
| 20260502115527 | 1 | 360 | 1.6 | 6.4 | 0.00 | 0.00 | 0.00 | 63 | 1016.1 |
| 20260502115027 | 1 | 360 | 3.2 | 6.4 | 0.00 | 0.00 | 0.00 | 64 | 1016.2 |
| 20260502114629 | 2 | 360 | 1.6 | 4.8 | 0.00 | 0.00 | 0.00 | 63 | 1016.1 |
| 20260502114024 | 2 | 0 | 0.0 | 8.0 | 0.00 | 0.00 | 0.00 | 63 | 1016.1 |
| 20260502113529 | 2 | 360 | 1.6 | 8.0 | 0.00 | 0.00 | 0.00 | 63 | 1016.1 |
| 20260502113044 | 2 | 360 | 3.2 | 8.0 | 0.00 | 0.00 | 0.00 | 62 | 1016.0 |
| 20260502112527 | 3 | 360 | 1.6 | 8.0 | 0.00 | 0.00 | 0.00 | 59 | 1016.1 |
| 20260502112030 | 3 | 360 | 3.2 | 8.0 | 0.00 | 0.00 | 0.00 | 58 | 1016.1 |
| 20260502111539 | 3 | 360 | 4.8 | 6.4 | 0.00 | 0.00 | 0.00 | 56 | 1016.1 |
| 20260502111028 | 3 | 360 | 1.6 | 6.4 | 0.00 | 0.00 | 0.00 | 56 | 1016.1 |
| 20260502110528 | 4 | 360 | 1.6 | 6.4 | 0.00 | 0.00 | 0.00 | 56 | 1016.3 |
| 20260502110041 | 5 | 360 | 3.2 | 6.4 | 0.00 | 0.00 | 0.00 | 54 | 1016.3 |
| 20260502105527 | 5 | 360 | 1.6 | 6.4 | 0.00 | 0.00 | 0.00 | 54 | 1016.3 |
| 20260502105027 | 5 | 0 | 0.0 | 9.7 | 0.00 | 0.00 | 0.00 | 55 | 1016.3 |
| 20260502104539 | 6 | 360 | 4.8 | 9.7 | 0.00 | 0.00 | 0.00 | 51 | 1016.3 |
| 20260502104024 | 6 | 360 | 0.0 | 8.0 | 0.00 | 0.00 | 0.00 | 51 | 1016.3 |
| 20260502103524 | 5 | 360 | 3.2 | 6.4 | 0.00 | 0.00 | 0.00 | 51 | 1016.3 |
| 20260502103037 | 5 | 360 | 1.6 | 4.8 | 0.00 | 0.00 | 0.00 | 53 | 1016.4 |
| 20260502102527 | 5 | 0 | 1.6 | 14.5 | 0.00 | 0.00 | 0.00 | 51 | 1016.4 |
| 20260502102027 | 6 | 360 | 1.6 | 14.5 | 0.00 | 0.00 | 0.00 | 52 | 1016.4 |
| 20260502101600 | 6 | 360 | 6.4 | 14.5 | 0.00 | 0.00 | 0.00 | 51 | 1016.4 |
| 20260502101028 | 6 | 360 | 3.2 | 8.0 | 0.00 | 0.00 | 0.00 | 53 | 1016.4 |
| 20260502100528 | 6 | 360 | 3.2 | 12.9 | 0.00 | 0.00 | 0.00 | 51 | 1016.5 |
| 20260502091029 | 3 | 0 | 1.6 | 3.2 | 0.00 | 0.00 | 0.00 | 66 | 1016.7 |
| 20260502090528 | 3 | 0 | 0.0 | 3.2 | 0.00 | 0.00 | 0.00 | 64 | 1016.7 |
| 20260502071028 | 3 | 360 | 3.2 | 6.4 | 0.00 | 0.00 | 0.00 | 67 | 1018.0 |
| 20260502070528 | 3 | 360 | 1.6 | 4.8 | 0.00 | 0.00 | 0.00 | 67 | 1018.0 |
| 20260502070046 | 3 | 0 | 1.6 | 4.8 | 0.00 | 0.00 | 0.00 | 67 | 1018.1 |
| 20260502065525 | 3 | 360 | 1.6 | 4.8 | 0.00 | 0.00 | 0.00 | 67 | 1018.0 |
| 20260502065027 | 3 | 0 | 0.0 | 6.4 | 0.00 | 0.00 | 0.00 | 67 | 1018.1 |
| 20260502064605 | 3 | 360 | 3.2 | 8.0 | 0.00 | 0.00 | 0.00 | 67 | 1018.1 |
| 20260502064028 | 3 | 360 | 3.2 | 8.0 | 0.00 | 0.00 | 0.00 | 66 | 1018.1 |
| 20260502063527 | 3 | 360 | 4.8 | 8.0 | 0.00 | 0.00 | 0.00 | 67 | 1018.1 |
| 20260502063040 | 3 | 360 | 3.2 | 4.8 | 0.00 | 0.00 | 0.00 | 67 | 1018.2 |
| 20260502062525 | 3 | 360 | 3.2 | 6.4 | 0.00 | 0.00 | 0.00 | 67 | 1018.3 |
| 20260502062027 | 3 | 360 | 1.6 | 8.0 | 0.00 | 0.00 | 0.00 | 67 | 1018.1 |
| 20260502061536 | 3 | 360 | 4.8 | 8.0 | 0.00 | 0.00 | 0.00 | 66 | 1018.2 |
| 20260502061028 | 3 | 360 | 4.8 | 8.0 | 0.00 | 0.00 | 0.00 | 67 | 1018.1 |
| 20260502060527 | 3 | 360 | 4.8 | 8.0 | 0.00 | 0.00 | 0.00 | 67 | 1018.0 |
| 20260502060047 | 3 | 360 | 4.8 | 8.0 | 0.00 | 0.00 | 0.00 | 67 | 1018.1 |
| 20260502055528 | 3 | 360 | 3.2 | 6.4 | 0.00 | 0.00 | 0.00 | 67 | 1018.1 |
| 20260502055028 | 3 | 360 | 3.2 | 8.0 | 0.00 | 0.00 | 0.00 | 66 | 1018.2 |
| 20260502054539 | 3 | 360 | 3.2 | 8.0 | 0.00 | 0.00 | 0.00 | 67 | 1018.2 |
| 20260502054027 | 3 | 360 | 3.2 | 6.4 | 0.00 | 0.00 | 0.00 | 66 | 1018.3 |
| 20260502053531 | 3 | 360 | 3.2 | 6.4 | 0.00 | 0.00 | 0.00 | 65 | 1018.3 |
| 20260502053040 | 4 | 360 | 3.2 | 8.0 | 0.00 | 0.00 | 0.00 | 65 | 1018.1 |
| 20260502052527 | 3 | 360 | 3.2 | 8.0 | 0.00 | 0.00 | 0.00 | 66 | 1018.3 |
| 20260502052028 | 3 | 360 | 4.8 | 9.7 | 0.00 | 0.00 | 0.00 | 67 | 1018.4 |
| 20260502051539 | 3 | 360 | 3.2 | 9.7 | 0.00 | 0.00 | 0.00 | 68 | 1018.3 |
| 20260502051028 | 2 | 360 | 3.2 | 9.7 | 0.00 | 0.00 | 0.00 | 69 | 1018.4 |
| 20260502050527 | 2 | 360 | 3.2 | 4.8 | 0.00 | 0.00 | 0.00 | 68 | 1018.3 |
| 20260502050039 | 2 | 360 | 1.6 | 4.8 | 0.00 | 0.00 | 0.00 | 68 | 1018.4 |
| 20260502045527 | 2 | 360 | 3.2 | 6.4 | 0.00 | 0.00 | 0.00 | 69 | 1018.4 |
| 20260502045027 | 2 | 360 | 3.2 | 6.4 | 0.00 | 0.00 | 0.00 | 69 | 1018.4 |
| 20260502044542 | 2 | 360 | 3.2 | 6.4 | 0.00 | 0.00 | 0.00 | 68 | 1018.4 |
| 20260502044027 | 2 | 360 | 1.6 | 4.8 | 0.00 | 0.00 | 0.00 | 69 | 1018.4 |
| 20260502043529 | 2 | 360 | 1.6 | 4.8 | 0.00 | 0.00 | 0.00 | 69 | 1018.4 |
| 20260502043107 | 2 | 360 | 3.2 | 4.8 | 0.00 | 0.00 | 0.00 | 70 | 1018.5 |
| 20260502042528 | 2 | 360 | 1.6 | 4.8 | 0.00 | 0.00 | 0.00 | 71 | 1018.5 |
| 20260502042028 | 2 | 360 | 3.2 | 6.4 | 0.00 | 0.00 | 0.00 | 71 | 1018.6 |
| 20260502041545 | 2 | 360 | 3.2 | 6.4 | 0.00 | 0.00 | 0.00 | 69 | 1018.6 |
| 20260502041027 | 2 | 360 | 4.8 | 8.0 | 0.00 | 0.00 | 0.00 | 70 | 1018.6 |
| 20260502040531 | 2 | 0 | 3.2 | 8.0 | 0.00 | 0.00 | 0.00 | 68 | 1018.6 |
| 20260502040039 | 3 | 360 | 3.2 | 6.4 | 0.00 | 0.00 | 0.00 | 66 | 1018.4 |
| 20260502035527 | 3 | 360 | 3.2 | 6.4 | 0.00 | 0.00 | 0.00 | 66 | 1018.5 |
| 20260502035028 | 3 | 360 | 3.2 | 6.4 | 0.00 | 0.00 | 0.00 | 66 | 1018.5 |
| 20260502034538 | 3 | 360 | 3.2 | 6.4 | 0.00 | 0.00 | 0.00 | 67 | 1018.5 |
| 20260502034024 | 3 | 360 | 3.2 | 6.4 | 0.00 | 0.00 | 0.00 | 67 | 1018.6 |
| 20260502033527 | 3 | 360 | 1.6 | 4.8 | 0.00 | 0.00 | 0.00 | 67 | 1018.5 |
| 20260502033043 | 3 | 360 | 3.2 | 4.8 | 0.00 | 0.00 | 0.00 | 66 | 1018.4 |
| 20260502032528 | 3 | 360 | 1.6 | 4.8 | 0.00 | 0.00 | 0.00 | 68 | 1018.4 |
| 20260502032027 | 3 | 360 | 0.0 | 4.8 | 0.00 | 0.00 | 0.00 | 67 | 1018.5 |
| 20260502031540 | 3 | 360 | 3.2 | 4.8 | 0.00 | 0.00 | 0.00 | 65 | 1018.4 |
| 20260502031028 | 4 | 0 | 0.0 | 3.2 | 0.00 | 0.00 | 0.00 | 65 | 1018.4 |
| 20260502030528 | 5 | 360 | 0.0 | 6.4 | 0.00 | 0.00 | 0.00 | 62 | 1018.3 |
| 20260502030046 | 6 | 360 | 1.6 | 6.4 | 0.00 | 0.00 | 0.00 | 59 | 1018.1 |
| 20260502025527 | 6 | 360 | 3.2 | 6.4 | 0.00 | 0.00 | 0.00 | 58 | 1018.2 |
| 20260502025029 | 6 | 360 | 3.2 | 6.4 | 0.00 | 0.00 | 0.00 | 58 | 1018.1 |
| 20260502024537 | 6 | 360 | 4.8 | 6.4 | 0.00 | 0.00 | 0.00 | 59 | 1017.9 |
| 20260502024027 | 6 | 360 | 3.2 | 6.4 | 0.00 | 0.00 | 0.00 | 60 | 1018.0 |
| 20260502023527 | 6 | 360 | 4.8 | 6.4 | 0.00 | 0.00 | 0.00 | 60 | 1017.9 |
| 20260502023104 | 6 | 360 | 3.2 | 4.8 | 0.00 | 0.00 | 0.00 | 61 | 1017.9 |
| 20260502022528 | 7 | 360 | 1.6 | 4.8 | 0.00 | 0.00 | 0.00 | 60 | 1017.9 |
| 20260502022030 | 7 | 360 | 1.6 | 4.8 | 0.00 | 0.00 | 0.00 | 60 | 1017.8 |
| 20260502021543 | 8 | 360 | 1.6 | 6.4 | 0.00 | 0.00 | 0.00 | 58 | 1017.8 |
| 20260502021027 | 10 | 360 | 3.2 | 6.4 | 0.00 | 0.00 | 0.00 | 52 | 1017.8 |
| 20260502020530 | 11 | 360 | 3.2 | 6.4 | 0.00 | 0.00 | 0.00 | 48 | 1017.8 |
| 20260502020041 | 12 | 360 | 0.0 | 3.2 | 0.00 | 0.00 | 0.00 | 44 | 1017.7 |
| 20260502015527 | 13 | 0 | 0.0 | 0.0 | 0.00 | 0.00 | 0.00 | 42 | 1017.5 |
| 20260502015028 | 13 | 0 | 0.0 | 0.0 | 0.00 | 0.00 | 0.00 | 43 | 1017.6 |
| 20260502014541 | 14 | 0 | 0.0 | 3.2 | 0.00 | 0.00 | 0.00 | 41 | 1017.6 |
| 20260502014028 | 15 | 0 | 0.0 | 3.2 | 0.00 | 0.00 | 0.00 | 39 | 1017.5 |
| 20260502013527 | 15 | 0 | 1.6 | 3.2 | 0.00 | 0.00 | 0.00 | 38 | 1017.5 |
| 20260502013042 | 15 | 0 | 0.0 | 4.8 | 0.00 | 0.00 | 0.00 | 37 | 1017.6 |
| 20260502012527 | 15 | 360 | 0.0 | 4.8 | 0.00 | 0.00 | 0.00 | 40 | 1017.6 |
| 20260502012030 | 15 | 360 | 1.6 | 6.4 | 0.00 | 0.00 | 0.00 | 39 | 1017.5 |
| 20260502011537 | 15 | 360 | 1.6 | 6.4 | 0.00 | 0.00 | 0.00 | 40 | 1017.4 |
| 20260502011028 | 16 | 360 | 3.2 | 6.4 | 0.00 | 0.00 | 0.00 | 37 | 1017.5 |
| 20260502010527 | 16 | 360 | 3.2 | 14.5 | 0.00 | 0.00 | 0.00 | 38 | 1017.5 |
| 20260502010036 | 16 | 360 | 3.2 | 14.5 | 0.00 | 0.00 | 0.00 | 36 | 1017.5 |
| 20260502005527 | 17 | 360 | 3.2 | 12.9 | 0.00 | 0.00 | 0.00 | 33 | 1017.4 |
| 20260502005024 | 17 | 360 | 6.4 | 17.7 | 0.00 | 0.00 | 0.00 | 31 | 1017.3 |
| 20260502004544 | 17 | 360 | 4.8 | 17.7 | 0.00 | 0.00 | 0.00 | 35 | 1017.4 |
| 20260502004026 | 17 | 360 | 11.3 | 17.7 | 0.00 | 0.00 | 0.00 | 29 | 1017.3 |
| 20260502003523 | 17 | 360 | 8.0 | 17.7 | 0.00 | 0.00 | 0.00 | 29 | 1017.3 |
| 20260502003039 | 17 | 360 | 8.0 | 17.7 | 0.00 | 0.00 | 0.00 | 28 | 1017.3 |
| 20260502002527 | 17 | 360 | 11.3 | 17.7 | 0.00 | 0.00 | 0.00 | 29 | 1017.4 |
| 20260502002024 | 17 | 360 | 8.0 | 16.1 | 0.00 | 0.00 | 0.00 | 30 | 1017.4 |
| 20260502001539 | 17 | 360 | 4.8 | 17.7 | 0.00 | 0.00 | 0.00 | 31 | 1017.3 |
| 20260502001028 | 17 | 360 | 8.0 | 22.5 | 0.00 | 0.00 | 0.00 | 31 | 1017.4 |
| 20260502000528 | 17 | 360 | 8.0 | 29.0 | 0.00 | 0.00 | 0.00 | 27 | 1017.4 |
| 20260502000038 | 17 | 360 | 14.5 | 29.0 | 0.00 | 0.00 | 0.00 | 30 | 1017.4 |
| 20260501235528 | 17 | 360 | 8.0 | 20.9 | 0.00 | 0.00 | 0.00 | 31 | 1017.3 |
| 20260501235028 | 17 | 360 | 11.3 | 27.4 | 0.00 | 0.00 | 0.00 | 31 | 1017.3 |
| 20260501234539 | 17 | 360 | 12.9 | 27.4 | 0.00 | 0.00 | 0.00 | 31 | 1017.3 |
| 20260501234028 | 17 | 360 | 14.5 | 27.4 | 0.00 | 0.00 | 0.00 | 30 | 1017.3 |
| 20260501233528 | 17 | 360 | 12.9 | 20.9 | 0.00 | 0.00 | 0.00 | 29 | 1017.3 |
| 20260501233037 | 17 | 360 | 9.7 | 20.9 | 0.00 | 0.00 | 0.00 | 30 | 1017.3 |
| 20260501232524 | 17 | 360 | 8.0 | 20.9 | 0.00 | 0.00 | 0.00 | 30 | 1017.3 |
| 20260501232030 | 17 | 360 | 11.3 | 25.7 | 0.00 | 0.00 | 0.00 | 30 | 1017.4 |
| 20260501231540 | 17 | 360 | 11.3 | 25.7 | 0.00 | 0.00 | 0.00 | 32 | 1017.3 |
| 20260501231027 | 17 | 360 | 16.1 | 33.8 | 0.00 | 0.00 | 0.00 | 32 | 1017.4 |
| 20260501230528 | 17 | 360 | 16.1 | 33.8 | 0.00 | 0.00 | 0.00 | 30 | 1017.4 |
| 20260501230039 | 17 | 360 | 8.0 | 17.7 | 0.00 | 0.00 | 0.00 | 33 | 1017.4 |
| 20260501225528 | 17 | 360 | 8.0 | 24.1 | 0.00 | 0.00 | 0.00 | 32 | 1017.4 |
| 20260501225028 | 17 | 360 | 14.5 | 27.4 | 0.00 | 0.00 | 0.00 | 32 | 1017.4 |
| 20260501224540 | 17 | 360 | 11.3 | 27.4 | 0.00 | 0.00 | 0.00 | 32 | 1017.5 |
| 20260501224027 | 17 | 360 | 17.7 | 27.4 | 0.00 | 0.00 | 0.00 | 30 | 1017.4 |
| 20260501223527 | 17 | 360 | 16.1 | 25.7 | 0.00 | 0.00 | 0.00 | 32 | 1017.4 |
| 20260501223038 | 17 | 360 | 11.3 | 25.7 | 0.00 | 0.00 | 0.00 | 32 | 1017.4 |
| 20260501222529 | 17 | 360 | 14.5 | 25.7 | 0.00 | 0.00 | 0.00 | 31 | 1017.3 |
| 20260501222025 | 17 | 360 | 11.3 | 30.6 | 0.00 | 0.00 | 0.00 | 35 | 1017.3 |
| 20260501221543 | 17 | 360 | 19.3 | 30.6 | 0.00 | 0.00 | 0.00 | 32 | 1017.4 |
| 20260501221032 | 17 | 360 | 9.7 | 25.7 | 0.00 | 0.00 | 0.00 | 31 | 1017.5 |
| 20260501220528 | 17 | 360 | 9.7 | 27.4 | 0.00 | 0.00 | 0.00 | 34 | 1017.5 |
| 20260501220041 | 17 | 360 | 16.1 | 27.4 | 0.00 | 0.00 | 0.00 | 32 | 1017.5 |
| 20260501215527 | 17 | 360 | 19.3 | 27.4 | 0.00 | 0.00 | 0.00 | 33 | 1017.5 |
| 20260501215029 | 17 | 360 | 16.1 | 30.6 | 0.00 | 0.00 | 0.00 | 30 | 1017.5 |
| 20260501214539 | 17 | 360 | 14.5 | 30.6 | 0.00 | 0.00 | 0.00 | 31 | 1017.5 |
| 20260501214027 | 17 | 360 | 9.7 | 30.6 | 0.00 | 0.00 | 0.00 | 34 | 1017.6 |
| 20260501213527 | 17 | 360 | 14.5 | 30.6 | 0.00 | 0.00 | 0.00 | 30 | 1017.5 |
| 20260501213038 | 17 | 360 | 20.9 | 30.6 | 0.00 | 0.00 | 0.00 | 31 | 1017.7 |
| 20260501212527 | 17 | 360 | 12.9 | 29.0 | 0.00 | 0.00 | 0.00 | 34 | 1017.6 |
| 20260501212027 | 17 | 360 | 12.9 | 29.0 | 0.00 | 0.00 | 0.00 | 35 | 1017.6 |
| 20260501211541 | 17 | 360 | 17.7 | 38.6 | 0.00 | 0.00 | 0.00 | 32 | 1017.6 |
| 20260501211028 | 17 | 360 | 14.5 | 38.6 | 0.00 | 0.00 | 0.00 | 36 | 1017.6 |
| 20260501210529 | 17 | 360 | 12.9 | 25.7 | 0.00 | 0.00 | 0.00 | 34 | 1017.7 |
| 20260501210044 | 17 | 360 | 11.3 | 22.5 | 0.00 | 0.00 | 0.00 | 37 | 1017.6 |
| 20260501205527 | 17 | 360 | 14.5 | 30.6 | 0.00 | 0.00 | 0.00 | 34 | 1017.7 |
| 20260501205027 | 17 | 360 | 16.1 | 30.6 | 0.00 | 0.00 | 0.00 | 35 | 1017.9 |
| 20260501204552 | 17 | 360 | 14.5 | 30.6 | 0.00 | 0.00 | 0.00 | 33 | 1017.8 |
| 20260501204026 | 17 | 360 | 16.1 | 29.0 | 0.00 | 0.00 | 0.00 | 36 | 1017.8 |
| 20260501203527 | 17 | 360 | 9.7 | 25.7 | 0.00 | 0.00 | 0.00 | 37 | 1017.6 |
| 20260501203041 | 17 | 360 | 16.1 | 25.7 | 0.00 | 0.00 | 0.00 | 35 | 1017.8 |
| 20260501202528 | 17 | 360 | 14.5 | 27.4 | 0.00 | 0.00 | 0.00 | 32 | 1017.9 |
| 20260501202027 | 17 | 360 | 16.1 | 27.4 | 0.00 | 0.00 | 0.00 | 34 | 1017.8 |
| 20260501201544 | 17 | 360 | 12.9 | 27.4 | 0.00 | 0.00 | 0.00 | 36 | 1017.7 |
| 20260501201027 | 17 | 360 | 11.3 | 27.4 | 0.00 | 0.00 | 0.00 | 34 | 1017.8 |
| 20260501200527 | 17 | 360 | 16.1 | 29.0 | 0.00 | 0.00 | 0.00 | 35 | 1017.8 |
| 20260501200038 | 17 | 360 | 14.5 | 29.0 | 0.00 | 0.00 | 0.00 | 34 | 1017.8 |
| 20260501195530 | 17 | 360 | 14.5 | 27.4 | 0.00 | 0.00 | 0.00 | 35 | 1017.9 |
| 20260501195024 | 17 | 360 | 12.9 | 27.4 | 0.00 | 0.00 | 0.00 | 36 | 1017.8 |
| 20260501194544 | 17 | 360 | 14.5 | 32.2 | 0.00 | 0.00 | 0.00 | 34 | 1017.9 |
| 20260501194026 | 16 | 360 | 19.3 | 32.2 | 0.00 | 0.00 | 0.00 | 37 | 1017.9 |
| 20260501193527 | 16 | 360 | 16.1 | 32.2 | 0.00 | 0.00 | 0.00 | 31 | 1017.9 |
| 20260501193036 | 16 | 360 | 16.1 | 30.6 | 0.00 | 0.00 | 0.00 | 35 | 1017.9 |
| 20260501192527 | 17 | 360 | 16.1 | 27.4 | 0.00 | 0.00 | 0.00 | 36 | 1017.9 |
| 20260501192027 | 17 | 360 | 14.5 | 25.7 | 0.00 | 0.00 | 0.00 | 38 | 1017.9 |
| 20260501191544 | 17 | 360 | 16.1 | 32.2 | 0.00 | 0.00 | 0.00 | 36 | 1018.0 |
| 20260501191027 | 17 | 360 | 14.5 | 32.2 | 0.00 | 0.00 | 0.00 | 35 | 1017.9 |
| 20260501190527 | 16 | 360 | 14.5 | 38.6 | 0.00 | 0.00 | 0.00 | 36 | 1018.0 |
| 20260501190044 | 16 | 360 | 17.7 | 38.6 | 0.00 | 0.00 | 0.00 | 37 | 1017.9 |
| 20260501185523 | 16 | 360 | 19.3 | 37.0 | 0.00 | 0.00 | 0.00 | 39 | 1017.9 |
| 20260501185027 | 16 | 360 | 16.1 | 33.8 | 0.00 | 0.00 | 0.00 | 37 | 1018.1 |
| 20260501184546 | 16 | 360 | 16.1 | 30.6 | 0.00 | 0.00 | 0.00 | 37 | 1018.0 |
| 20260501184028 | 16 | 360 | 16.1 | 30.6 | 0.00 | 0.00 | 0.00 | 36 | 1018.0 |
| 20260501183531 | 17 | 360 | 17.7 | 30.6 | 0.00 | 0.00 | 0.00 | 37 | 1017.9 |
| 20260501183045 | 16 | 360 | 12.9 | 30.6 | 0.00 | 0.00 | 0.00 | 36 | 1018.1 |
| 20260501182531 | 16 | 360 | 14.5 | 29.0 | 0.00 | 0.00 | 0.00 | 37 | 1017.9 |
| 20260501182030 | 16 | 360 | 16.1 | 35.4 | 0.00 | 0.00 | 0.00 | 36 | 1018.0 |
| 20260501181538 | 16 | 360 | 14.5 | 35.4 | 0.00 | 0.00 | 0.00 | 33 | 1018.1 |
| 20260501181027 | 16 | 360 | 19.3 | 35.4 | 0.00 | 0.00 | 0.00 | 33 | 1018.1 |
| 20260501180527 | 16 | 360 | 19.3 | 35.4 | 0.00 | 0.00 | 0.00 | 35 | 1018.1 |
| 20260501180037 | 16 | 360 | 12.9 | 35.4 | 0.00 | 0.00 | 0.00 | 37 | 1018.1 |
| 20260501175527 | 16 | 360 | 14.5 | 37.0 | 0.00 | 0.00 | 0.00 | 36 | 1018.1 |
| 20260501175023 | 16 | 360 | 14.5 | 37.0 | 0.00 | 0.00 | 0.00 | 36 | 1018.1 |
| 20260501174542 | 16 | 360 | 16.1 | 33.8 | 0.00 | 0.00 | 0.00 | 34 | 1018.2 |
| 20260501174026 | 16 | 360 | 16.1 | 32.2 | 0.00 | 0.00 | 0.00 | 35 | 1018.2 |
| 20260501173526 | 16 | 360 | 14.5 | 37.0 | 0.00 | 0.00 | 0.00 | 39 | 1018.1 |
| 20260501173046 | 15 | 360 | 17.7 | 37.0 | 0.00 | 0.00 | 0.00 | 35 | 1018.2 |
| 20260501172528 | 15 | 360 | 16.1 | 33.8 | 0.00 | 0.00 | 0.00 | 36 | 1018.1 |
| 20260501172029 | 16 | 360 | 14.5 | 35.4 | 0.00 | 0.00 | 0.00 | 37 | 1018.2 |